Wetbulb
41.97 37.45 34.58 33.94 35.83 36.14 37.45 37.77 36.85 41.60 46.05 44.77 43.95 45.10 47.89 49.31 48.74 45.04 44.68 45.30 45.72 52.18 59.31 61.22 62.00 62.83 63.03 63.87 64.00 63.87 63.97 64.17 64.37 63.44 64.23 63.58 63.28 64.15 64.47 64.78 63.85 63.72 63.69 63.43
34.83 33.11 37.65 38.85 37.20 35.85 35.15 32.87 33.25 38.49 42.57 44.73 43.42 43.27 46.98 48.44 47.93 48.64 45.78 45.71 45.26 46.46 53.73 59.02 60.81 61.74 61.87 62.57 63.58 63.31 64.04 63.92 63.98 64.25 64.51 63.53 62.88 64.29 64.75 64.64 64.03 64.33 63.86 63.65
30.94 34.80 40.04 38.70 36.64 33.76 34.01 32.67 33.05 34.76 36.75 37.89 37.90 37.42 42.43 46.61 47.17 50.12 49.61 48.91 46.42 47.70 47.70 54.96 58.60 60.55 61.00 60.86 62.23 63.18 64.03 64.06 64.33 64.63 65.00 63.58 63.39 62.88 64.04 64.33 63.47 64.04 64.06 63.74
34.34 36.95 35.92 36.89 35.34 36.67 30.57 37.15 36.75 36.11 35.55 31.93 36.72 31.62 36.40 43.33 45.45 47.67 49.79 50.26 46.84 47.20 48.60 49.90 55.53 56.62 58.02 59.77 61.57 62.63 63.51 64.53 64.74 65.47 64.77 63.83 63.65 63.10 63.50 62.81 63.63 63.81 64.22 64.23
31.04 33.30 32.59 32.49 36.14 38.42 33.71 38.10 36.30 36.80 33.90 30.78 30.64 29.81 33.70 40.22 39.95 43.71 48.59 50.36 47.69 45.19 43.71 42.06 43.39 45.28 46.50 47.72 49.77 52.73 58.55 61.43 62.42 64.44 64.58 63.91 63.50 63.74 63.21 63.62 63.11 63.99 64.35 64.71
31.84 36.89 34.84 34.94 37.50 38.98 39.44 35.15 34.77 36.05 33.40 24.30 30.11 31.08 29.60 36.92 40.35 43.27 46.82 50.06 43.68 43.15 43.12 42.32 43.08 44.07 43.84 44.98 45.20 45.32 47.45 48.66 50.69 51.06 54.93 62.80 63.04 62.65 61.43 61.91 62.40 62.89 64.00 64.46
27.54 30.58 34.86 36.86 33.85 39.15 36.96 31.10 21.47 23.98 24.25 22.51 31.54 28.74 32.76 37.56 38.08 42.02 40.66 43.91 44.98 45.36 43.64 44.11 43.84 44.10 44.95 45.74 46.67 47.70 47.13 46.51 47.40 47.31 49.70 49.97 56.84 61.63 61.74 62.12 62.49 60.71 61.69 62.30
17.39 16.73 31.52 36.52 35.57 33.32 33.95 31.62 22.68 15.56 20.37 21.47 31.19 25.82 31.31 40.52 40.22 38.77 39.72 41.49 42.66 43.18 44.25 44.47 45.18 45.01 44.99 45.79 46.09 46.20 46.70 46.47 46.99 46.85 47.30 48.83 51.62 53.70 57.89 61.39 61.89 62.75 61.35 62.21
23.50 21.58 35.39 36.77 37.60 37.77 33.07 28.80 33.55 25.03 21.53 22.48 26.28 28.82 35.55 36.20 36.36 38.15 39.77 41.35 41.83 43.10 43.76 43.95 44.49 45.08 45.57 45.80 45.29 45.00 45.53 45.93 45.93 46.25 45.99 46.25 47.16 48.96 51.46 53.30 55.37 58.00 59.11 59.29
27.97 22.23 32.03 34.69 38.27 39.02 35.65 36.44 26.55 25.67 12.69 12.31 21.99 23.08 26.51 30.47 33.54 37.57 38.51 39.74 41.67 42.85 43.15 43.50 43.80 44.23 44.78 45.14 45.22 45.13 45.17 44.26 44.12 44.45 44.70 45.10 44.91 45.48 46.06 47.57 48.85 50.78 53.28 55.72
30.32 27.38 28.56 32.15 33.29 31.19 33.93 31.34 31.46 30.07 23.76 19.34 18.30 21.38 30.66 31.94 36.02 36.04 37.91 39.14 39.16 40.77 41.60 42.47 43.20 43.61 43.46 43.41 43.38 43.07 43.24 42.67 42.35 43.01 43.76 43.06 42.92 43.42 44.81 45.07 45.64 45.92 47.20 48.23
30.94 23.34 23.44 27.21 33.73 34.81 34.27 32.50 31.78 26.54 22.09 22.69 24.11 21.70 33.81 35.54 36.91 37.65 37.78 38.59 38.70 39.79 39.69 40.61 40.94 40.96 40.88 40.93 40.83 41.00 41.20 41.12 40.94 41.11 41.52 41.87 41.92 42.38 42.62 42.49 42.63 42.79 43.36 44.53
31.37 26.01 12.82 21.36 30.44 32.05 31.74 33.03 33.70 32.33 27.73 22.03 17.39 20.94 34.30 36.17 35.14 36.46 36.50 36.97 38.09 38.36 37.67 38.22 38.28 37.97 37.79 37.73 37.48 38.64 38.81 38.83 39.28 39.42 39.35 39.44 39.59 40.14 40.10 40.29 40.57 40.78 40.83 41.06
33.99 27.72 20.67 18.87 21.52 27.62 25.19 29.68 33.38 32.20 22.58 25.14 23.34 25.33 29.17 31.67 33.19 34.30 35.29 36.25 36.25 35.94 36.37 35.76 35.20 34.77 35.50 35.49 34.83 35.25 35.44 35.99 36.38 37.37 37.11 36.43 36.61 37.55 38.00 38.21 38.15 38.16 38.34 38.21
31.90 21.17 24.79 27.18 27.74 28.75 27.86 27.47 31.73 29.45 29.97 25.82 27.01 28.30 30.39 32.14 32.56 33.48 34.32 34.85 34.75 34.47 34.45 34.03 33.73 33.20 32.86 33.23 32.91 33.57 33.00 33.36 34.12 34.74 34.94 34.85 35.00 35.39 35.09 34.99 35.19 35.32 35.48 35.71
30.27 22.64 24.11 18.49 26.00 26.75 26.13 28.57 31.20 31.44 30.72 29.91 29.07 28.20 32.73 32.27 32.52 33.03 33.82 33.91 33.19 33.41 34.13 34.12 33.74 33.37 32.67 32.44 31.92 31.95 30.78 30.84 31.76 31.99 32.18 32.18 32.02 31.68 31.33 31.82 32.00 32.22 32.45 33.05
25.87 24.73 20.10 15.50 23.07 23.69 16.95 24.30 28.63 30.30 32.84 32.75 27.89 32.20 32.65 30.79 33.24 33.04 32.43 33.01 32.75 33.35 33.64 33.26 32.40 32.17 31.74 30.86 31.10 29.03 28.98 29.62 29.57 29.33 29.46 28.55 28.43 28.48 29.17 29.75 29.96 30.05 30.54 31.17
23.31 21.87 16.80 13.11 15.48 9.82 23.74 28.16 29.10 30.13 32.35 33.82 34.37 35.81 35.34 34.10 33.56 33.33 33.83 33.22 33.31 33.63 33.47 33.44 32.36 31.41 30.93 30.21 29.06 28.26 27.39 27.65 27.32 27.58 26.70 26.74 26.87 26.80 27.57 27.82 28.06 27.97 28.58 28.82
26.04 21.83 10.60 9.52 3.28 15.13 21.87 24.82 24.90 25.76 26.47 32.08 30.91 31.02 32.17 32.13 32.15 31.64 33.27 33.36 33.16 32.98 32.95 32.19 31.19 30.48 28.98 27.71 26.59 25.89 25.50 25.78 26.10 25.92 25.20 25.51 25.66 25.82 26.18 26.38 26.40 27.12 27.60 27.95
25.60 24.94 14.79 1.59 3.08 1.01 18.50 26.20 29.38 28.32 18.27 28.20 30.57 30.22 29.79 29.97 24.33 26.81 31.97 32.45 32.26 32.29 31.55 30.01 28.97 28.10 26.96 25.93 25.29 25.15 24.81 24.59 24.71 24.77 24.78 24.93 25.15 25.03 24.39 24.87 25.70 26.77 26.88 28.04
1.75 0.88 2.66 -0.93 -1.85 9.97 22.70 26.87 28.19 13.53 19.54 28.27 30.31 30.25 29.50 26.95 28.35 31.84 32.60 31.99 31.49 30.42 29.49 28.08 25.98 25.73 25.46 25.36 25.06 24.33 23.74 23.31 24.20 24.21 24.02 23.75 23.79 23.76 24.14 24.81 25.39 25.56 25.68 26.38
10.78 4.29 0.31 -1.57 -0.96 3.89 24.99 24.81 21.67 25.67 27.11 27.25 28.27 28.47 28.38 29.22 30.01 30.33 30.36 29.60 29.57 28.71 27.52 26.22 24.92 24.65 24.27 24.58 23.94 22.78 21.66 22.95 21.55 21.25 21.22 20.76 21.01 22.72 24.46 23.56 23.95 23.70 23.58 23.03
11.46 19.20 14.03 16.56 15.84 23.81 25.55 25.04 26.68 28.96 28.13 26.95 27.80 27.35 28.88 27.94 27.29 28.03 28.51 28.48 28.06 26.96 27.28 25.85 23.52 22.87 22.89 23.18 23.05 21.32 21.64 21.61 20.09 16.61 14.85 16.25 19.14 21.70 23.13 22.24 22.51 21.73 21.39 20.28
19.60 22.93 17.27 18.09 22.61 24.74 26.12 25.86 27.27 28.97 28.24 28.09 28.11 28.10 27.90 27.38 27.60 28.00 28.25 27.96 27.70 26.91 25.80 23.90 22.11 21.29 20.71 21.20 21.63 20.73 20.55 20.23 13.84 13.46 15.32 17.19 17.63 18.34 19.56 21.21 21.56 20.47 19.93 19.42
21.57 20.36 17.21 18.06 23.44 24.50 25.94 25.89 27.74 28.00 28.97 28.32 27.93 28.38 28.01 27.28 27.65 27.75 27.30 26.86 26.46 25.51 23.60 22.07 20.86 20.13 19.53 19.36 18.90 17.08 18.75 17.22 15.76 14.84 14.81 15.17 16.03 15.04 16.79 18.28 18.55 20.24 21.64 21.96
22.23 21.44 20.53 18.36 23.96 24.30 25.09 26.16 27.24 26.86 27.21 27.83 27.21 26.21 27.19 27.22 27.16 26.97 25.96 25.56 23.97 22.48 20.47 18.68 18.42 17.11 16.84 14.98 14.93 13.56 11.41 12.90 10.70 13.03 13.13 12.91 14.12 14.10 15.21 15.69 16.57 21.78 24.01 25.41
MSLP
1017.70 1017.52 1016.20 1016.80 1016.52 1016.39 1016.13 1015.85 1015.51 1014.92 1014.25 1013.91 1013.57 1013.59 1013.49 1013.74 1013.83 1014.02 1013.75 1012.95 1012.84 1012.71 1011.87 1012.17 1012.62 1013.24 1013.91 1014.75 1015.13 1015.55 1016.00 1016.37 1016.87 1017.48 1017.75 1018.01 1018.38 1018.63 1018.67 1018.69 1019.08 1019.44 1019.72 1019.95
1018.53 1016.21 1016.73 1016.87 1016.88 1016.74 1016.04 1016.27 1015.54 1015.05 1014.52 1014.27 1014.09 1013.46 1013.40 1013.48 1013.92 1013.42 1013.47 1012.93 1012.64 1012.58 1012.04 1012.03 1012.24 1012.70 1013.19 1014.11 1014.75 1015.29 1015.69 1016.14 1016.64 1017.06 1017.39 1017.51 1017.80 1018.02 1018.24 1018.53 1018.76 1018.91 1019.18 1019.40
1017.75 1016.23 1016.69 1016.85 1016.57 1016.32 1015.90 1015.60 1015.59 1015.10 1014.96 1014.89 1014.38 1014.18 1013.72 1013.25 1013.05 1012.71 1012.63 1012.65 1012.64 1012.53 1012.31 1012.37 1012.32 1012.41 1012.96 1013.47 1014.21 1014.55 1015.13 1015.81 1016.38 1016.72 1017.38 1017.56 1017.73 1017.71 1017.71 1018.06 1018.37 1018.34 1018.64 1018.90
1017.88 1017.08 1016.92 1016.67 1015.99 1015.79 1015.29 1015.14 1014.95 1015.82 1015.51 1015.64 1015.36 1014.07 1013.06 1012.77 1012.43 1012.14 1011.68 1012.12 1012.39 1012.15 1012.46 1012.65 1012.92 1013.35 1013.76 1013.70 1013.92 1014.14 1014.53 1015.16 1015.71 1016.11 1016.47 1016.85 1017.33 1017.14 1017.23 1017.66 1017.97 1018.05 1017.89 1017.90
1017.41 1016.90 1016.46 1016.51 1015.62 1015.43 1015.08 1014.86 1015.22 1015.64 1015.97 1016.36 1016.23 1015.67 1013.08 1012.57 1011.90 1011.20 1011.29 1011.49 1011.97 1012.51 1013.31 1013.96 1014.32 1014.50 1014.87 1014.82 1015.01 1014.99 1014.75 1015.07 1015.55 1015.51 1015.96 1016.15 1016.59 1016.56 1016.78 1017.14 1017.42 1017.59 1017.43 1017.39
1017.95 1017.73 1017.70 1016.26 1015.47 1015.59 1015.21 1015.02 1015.13 1015.75 1016.68 1017.15 1015.99 1015.51 1014.06 1012.60 1011.41 1010.70 1010.63 1010.82 1012.29 1013.25 1014.64 1014.76 1014.97 1015.41 1015.63 1015.78 1015.96 1015.86 1015.70 1016.11 1016.12 1016.02 1016.23 1016.04 1015.96 1016.19 1016.69 1016.86 1017.05 1017.08 1017.03 1016.95
1018.12 1017.15 1017.08 1016.35 1015.64 1014.84 1014.86 1014.65 1015.49 1016.79 1017.36 1015.47 1015.50 1015.97 1013.69 1012.25 1011.56 1010.47 1010.64 1011.14 1011.86 1012.80 1014.53 1015.50 1015.91 1016.32 1016.64 1016.80 1016.62 1016.54 1016.39 1016.52 1016.65 1016.69 1016.76 1016.58 1016.38 1016.10 1016.22 1016.13 1016.08 1016.48 1016.60 1016.57
1018.06 1016.56 1015.57 1015.76 1015.30 1014.06 1014.28 1013.88 1013.66 1014.28 1015.36 1016.02 1016.04 1015.11 1013.04 1011.83 1012.30 1011.76 1011.93 1012.35 1013.15 1013.85 1014.80 1015.65 1016.43 1017.05 1017.29 1017.27 1017.58 1017.38 1017.22 1017.23 1017.09 1017.18 1017.17 1017.05 1016.93 1016.64 1016.28 1016.52 1015.81 1015.88 1016.00 1015.97
1017.91 1016.39 1014.88 1014.45 1013.68 1013.91 1013.66 1013.40 1013.01 1013.88 1014.76 1015.59 1015.70 1014.59 1013.15 1012.41 1012.61 1013.01 1013.58 1013.84 1014.44 1015.02 1015.52 1016.32 1017.06 1017.15 1017.59 1017.47 1017.55 1017.96 1017.97 1017.98 1017.99 1017.88 1017.69 1017.52 1017.46 1017.26 1017.03 1016.96 1016.66 1016.28 1016.34 1016.01
1018.53 1017.23 1015.05 1013.93 1013.90 1013.36 1012.58 1013.14 1013.20 1013.59 1014.53 1015.01 1014.86 1014.44 1013.24 1013.14 1013.33 1013.98 1014.51 1014.79 1015.55 1016.02 1016.07 1016.97 1017.40 1017.41 1017.65 1018.18 1018.02 1018.10 1018.25 1018.37 1018.64 1018.65 1018.50 1018.27 1017.98 1017.69 1017.39 1017.24 1017.17 1016.66 1016.86 1016.36
1018.46 1017.99 1015.87 1015.14 1013.66 1013.22 1013.18 1012.81 1012.73 1012.84 1013.61 1014.02 1014.58 1014.26 1013.40 1013.31 1013.53 1014.27 1014.88 1015.33 1016.23 1016.84 1016.80 1017.50 1018.28 1018.25 1018.33 1018.57 1018.59 1018.79 1018.95 1019.01 1018.94 1018.99 1018.83 1018.76 1018.76 1018.33 1018.07 1017.87 1017.64 1017.43 1017.15 1016.80
1018.23 1017.69 1016.51 1014.69 1013.96 1014.20 1013.65 1012.13 1012.19 1012.52 1013.21 1013.60 1013.78 1014.69 1013.14 1013.21 1013.89 1014.38 1015.50 1016.09 1016.70 1017.11 1017.84 1018.41 1019.02 1018.89 1018.94 1019.00 1019.15 1019.25 1019.28 1019.58 1019.80 1019.51 1019.13 1018.92 1018.91 1019.04 1018.69 1018.43 1018.13 1017.98 1017.79 1017.50
1018.15 1017.78 1017.20 1015.28 1014.68 1014.03 1012.73 1011.90 1011.81 1012.48 1013.10 1013.55 1014.40 1015.56 1014.87 1014.19 1014.95 1015.60 1015.93 1016.72 1017.58 1018.27 1018.71 1019.27 1019.64 1019.58 1019.88 1020.01 1020.08 1020.06 1020.26 1020.20 1020.06 1019.97 1019.84 1019.70 1019.25 1019.21 1019.35 1018.93 1018.56 1018.28 1018.14 1017.91
1018.26 1017.96 1017.56 1017.21 1016.38 1015.64 1014.26 1012.56 1011.99 1012.35 1012.91 1013.67 1014.23 1015.55 1015.82 1015.56 1015.75 1016.21 1016.71 1017.35 1018.19 1018.85 1019.29 1019.73 1020.04 1020.38 1020.64 1020.65 1020.80 1020.72 1020.95 1020.71 1020.42 1020.47 1020.36 1020.36 1020.00 1019.58 1019.62 1019.50 1018.91 1018.49 1018.32 1018.19
1018.56 1018.19 1017.95 1017.48 1017.10 1016.30 1015.35 1013.70 1012.58 1012.76 1013.18 1013.38 1014.38 1014.74 1015.59 1015.73 1016.14 1016.78 1017.24 1017.94 1018.80 1019.42 1019.78 1020.11 1020.37 1020.64 1020.91 1021.04 1021.24 1021.22 1021.12 1020.96 1020.84 1020.88 1021.18 1020.92 1020.66 1020.24 1020.01 1019.87 1019.39 1018.96 1018.76 1018.66
1019.00 1018.80 1018.83 1018.57 1017.71 1016.72 1015.38 1013.80 1013.14 1012.82 1013.60 1013.37 1013.86 1015.11 1015.46 1015.84 1016.37 1017.36 1017.96 1018.45 1019.35 1019.93 1020.08 1020.43 1020.72 1020.98 1021.36 1021.61 1021.76 1022.10 1022.24 1022.02 1021.76 1021.66 1021.69 1021.35 1021.08 1020.71 1020.64 1020.23 1019.59 1019.21 1019.04 1018.96
1020.18 1019.76 1019.58 1019.61 1018.71 1017.26 1016.32 1015.28 1014.25 1014.01 1014.08 1014.03 1014.20 1014.96 1015.46 1016.41 1016.99 1017.71 1018.29 1018.71 1019.29 1019.78 1020.00 1020.38 1020.92 1021.32 1021.59 1021.79 1021.86 1021.86 1021.75 1021.52 1021.26 1021.18 1021.20 1021.07 1020.95 1021.00 1020.86 1020.62 1020.20 1019.82 1019.41 1019.07
1021.40 1021.22 1021.31 1021.11 1019.75 1018.84 1017.19 1015.93 1015.20 1014.84 1014.97 1014.87 1014.39 1015.19 1015.96 1016.77 1017.35 1017.73 1018.10 1018.55 1019.21 1019.69 1020.09 1020.51 1021.02 1021.45 1021.71 1021.91 1022.09 1022.23 1022.22 1022.08 1021.97 1021.94 1021.91 1021.87 1021.78 1021.56 1021.16 1020.76 1020.24 1019.76 1019.34 1018.97
1022.23 1022.54 1023.10 1023.32 1022.72 1020.37 1017.80 1016.37 1015.43 1015.04 1015.40 1015.25 1014.87 1016.00 1016.67 1017.55 1018.03 1018.90 1018.72 1019.00 1019.64 1020.27 1020.91 1021.55 1021.99 1022.25 1022.47 1022.60 1022.66 1022.76 1022.87 1022.88 1022.77 1022.74 1022.65 1022.57 1022.42 1021.92 1021.36 1020.87 1020.40 1019.97 1019.56 1019.10
1022.91 1023.39 1024.41 1024.57 1023.94 1021.22 1018.42 1016.51 1015.39 1015.17 1015.52 1014.99 1014.93 1016.11 1016.81 1017.62 1018.60 1018.98 1018.99 1019.52 1020.17 1020.65 1021.14 1021.58 1021.92 1022.26 1022.45 1022.64 1022.75 1022.92 1023.11 1023.20 1023.21 1023.22 1023.14 1022.98 1022.66 1022.20 1021.69 1021.21 1020.62 1020.09 1019.65 1019.02
1024.97 1025.02 1025.69 1025.58 1024.10 1021.32 1018.07 1016.32 1015.69 1016.11 1016.05 1015.27 1015.54 1016.27 1016.92 1017.68 1018.02 1018.30 1019.07 1019.59 1020.09 1020.64 1021.13 1021.63 1022.06 1022.46 1022.70 1022.81 1022.94 1023.11 1023.28 1023.39 1023.45 1023.32 1023.18 1022.90 1022.50 1022.11 1021.59 1021.17 1020.68 1020.17 1019.59 1019.00
1024.04 1024.59 1024.81 1024.04 1023.05 1020.44 1017.38 1016.85 1016.52 1016.11 1016.05 1016.03 1016.33 1016.74 1017.46 1017.81 1018.16 1018.46 1018.86 1019.36 1019.93 1020.54 1021.08 1021.60 1022.08 1022.46 1022.65 1022.80 1022.92 1023.10 1023.26 1023.32 1023.32 1023.27 1023.13 1022.80 1022.36 1021.88 1021.30 1020.90 1020.49 1019.95 1019.41 1018.86
1022.81 1022.06 1022.24 1021.73 1020.12 1018.04 1017.00 1016.23 1015.90 1015.79 1016.18 1016.62 1016.67 1017.19 1017.41 1017.95 1018.36 1018.74 1019.10 1019.54 1020.04 1020.61 1021.15 1021.61 1022.08 1022.51 1022.72 1022.94 1023.12 1023.25 1023.24 1023.23 1023.27 1023.35 1023.14 1022.75 1022.32 1021.82 1021.25 1020.82 1020.43 1019.98 1019.48 1019.00
1021.24 1020.53 1020.57 1020.27 1017.93 1017.29 1016.56 1016.24 1016.25 1016.22 1016.45 1016.70 1016.75 1017.16 1017.69 1018.36 1018.60 1018.93 1019.35 1019.83 1020.22 1020.80 1021.37 1021.90 1022.28 1022.66 1022.99 1023.16 1023.34 1023.42 1023.33 1023.24 1023.30 1023.18 1022.86 1022.43 1022.02 1021.31 1020.96 1020.49 1020.37 1020.03 1019.46 1018.85
1019.97 1019.77 1019.37 1018.74 1017.60 1017.05 1016.27 1016.02 1015.96 1016.33 1016.56 1016.94 1017.37 1017.69 1018.00 1018.53 1018.85 1019.12 1019.60 1020.16 1020.52 1021.22 1021.73 1022.10 1022.55 1022.90 1023.01 1023.12 1023.28 1023.19 1023.03 1022.92 1022.95 1022.80 1022.51 1022.11 1021.72 1021.37 1020.94 1020.61 1020.24 1019.73 1019.23 1018.74
1017.82 1017.24 1017.89 1016.98 1015.69 1015.64 1015.39 1015.14 1015.45 1016.26 1016.64 1016.90 1017.56 1018.12 1018.37 1018.75 1018.95 1019.30 1019.87 1020.20 1020.80 1021.34 1021.80 1022.21 1022.64 1022.89 1022.88 1022.98 1022.96 1022.88 1022.79 1022.82 1022.89 1022.61 1022.30 1022.06 1021.79 1021.41 1021.01 1020.36 1019.40 1019.13 1018.56 1017.92
Wind_Speed
8 9 15 15 13 9 2 6 12 8 9 8 19 15 17 8 14 9 9 7 3 8 13 16 15 15 13 13 13 11 14 12 10 5 5 7 8 7 6 6 8 9 8 10
6 19 15 10 11 11 14 8 5 2 2 9 9 16 17 11 13 16 7 8 8 7 2 11 14 15 15 14 14 12 14 12 9 9 6 4 5 6 6 4 6 8 10 11
17 9 16 13 12 15 16 18 8 2 2 2 5 6 7 7 7 17 12 7 7 4 4 1 9 15 12 11 13 13 14 14 12 11 7 2 2 3 7 6 4 7 9 10
11 16 17 15 18 14 15 7 6 6 5 6 2 6 9 16 15 17 21 15 7 8 4 3 3 2 2 4 9 10 12 13 13 14 12 11 8 10 8 4 4 5 8 11
4 9 17 20 9 12 10 8 10 6 4 2 2 0 6 11 17 20 21 20 9 4 8 9 8 8 7 9 7 7 3 4 3 12 12 9 11 8 5 6 7 10 8 11
13 2 6 5 16 16 7 5 5 4 4 4 8 7 4 8 13 17 15 19 12 12 8 8 8 8 7 7 8 7 8 7 7 6 5 5 11 9 6 6 7 6 7 7
5 10 6 6 5 17 13 9 3 4 6 11 14 4 9 3 9 8 8 9 14 15 11 7 8 8 8 9 8 7 8 6 7 7 6 6 5 4 7 9 8 5 5 5
5 8 14 13 8 7 13 14 5 9 10 3 11 9 7 16 5 8 11 13 12 11 9 8 9 7 6 7 7 7 7 7 8 7 7 6 6 3 3 4 3 5 4 6
4 6 3 7 10 11 10 19 9 6 3 5 6 5 7 3 10 9 10 12 11 10 10 10 8 7 6 5 7 6 6 6 7 7 6 6 6 6 5 6 5 3 2 2
1 7 3 3 6 14 7 15 9 1 7 5 4 4 6 7 12 12 12 14 11 10 11 9 7 7 6 5 6 6 6 6 6 6 6 5 6 6 6 5 6 6 7 6
3 3 2 1 7 9 14 11 9 5 5 7 4 5 1 6 13 14 13 12 9 8 9 8 6 6 6 5 6 6 6 7 6 5 5 6 6 7 6 5 6 6 6 6
3 3 5 6 7 10 7 14 27 9 8 2 3 4 13 13 14 17 14 12 7 8 8 9 7 7 8 8 7 7 7 7 6 5 6 6 6 7 6 6 6 6 7 6
1 0 5 6 3 2 4 7 18 7 4 4 6 2 5 15 13 9 13 9 10 10 9 7 7 8 7 7 7 7 8 7 6 6 6 6 6 6 6 6 6 6 6 6
3 2 4 2 3 4 6 10 6 17 5 7 5 11 4 6 11 9 9 9 10 8 8 7 7 6 5 6 6 6 6 6 6 6 6 7 7 6 6 6 6 6 6 5
3 3 0 1 4 4 5 6 6 11 5 13 16 19 11 9 9 8 9 10 10 8 7 6 6 5 5 5 5 5 6 7 6 7 6 6 6 6 6 7 7 6 6 6
8 2 3 2 3 5 4 9 6 6 6 7 15 12 6 6 9 8 10 11 9 7 7 6 6 6 6 6 5 4 4 5 4 5 5 5 6 6 6 6 6 7 6 6
6 5 4 2 5 4 5 3 4 5 5 7 16 10 5 8 11 10 8 9 8 7 6 6 5 4 4 5 4 6 7 6 7 7 7 8 8 7 7 7 7 7 7 6
4 4 3 3 6 3 4 3 3 6 7 3 12 7 7 9 6 8 7 8 7 6 5 5 5 4 5 5 7 7 8 7 7 7 8 8 9 8 7 6 5 6 5 6
1 2 2 3 2 4 3 1 2 1 3 9 12 10 11 9 7 4 5 5 6 6 5 5 4 3 2 3 3 4 4 4 5 5 6 6 7 9 9 9 10 8 7 7
4 1 4 4 4 5 5 3 1 1 2 2 10 12 11 7 5 5 5 6 6 6 5 5 3 2 3 2 2 3 3 3 3 5 6 6 7 7 8 8 9 7 7 9
3 4 5 2 2 8 7 5 2 7 7 2 7 9 7 5 4 6 7 6 6 6 6 5 4 3 1 2 1 3 3 4 4 4 5 6 7 7 6 6 6 7 8 8
6 5 3 3 4 8 5 3 5 5 2 6 7 6 8 7 7 6 6 6 6 6 5 4 3 3 3 3 3 4 4 3 3 4 5 6 7 6 6 6 7 7 6 7
3 7 6 8 8 6 6 2 4 3 5 4 7 5 7 4 4 5 5 5 3 3 2 2 3 3 3 3 3 4 4 5 3 3 5 5 6 7 6 6 7 7 5 5
5 5 3 4 7 9 6 3 3 4 5 5 5 7 8 6 6 6 5 4 3 0 1 1 2 4 5 3 3 3 5 4 2 5 5 5 5 6 5 4 5 5 6 5
7 5 6 5 7 6 9 8 9 8 6 6 5 8 9 8 7 8 6 6 5 4 2 1 2 4 6 4 4 3 4 3 5 4 4 5 4 4 6 5 4 5 5 5
8 9 10 10 9 8 4 6 10 8 10 10 9 6 6 8 8 6 7 6 6 6 4 4 5 4 5 4 4 4 3 3 3 6 3 3 5 4 5 6 8 8 13 16
Wind_Direction
211 209 210 207 221 255 195 178 204 202 227 171 218 220 227 230 296 305 310 297 235 226 207 186 183 179 167 180 188 189 184 186 182 186 192 194 203 209 211 205 198 201 199 199
250 232 211 192 209 225 250 248 235 200 258 203 208 226 219 190 205 245 277 313 316 310 239 193 176 178 175 179 186 176 186 184 186 202 205 192 185 202 212 196 211 204 200 201
220 245 201 217 212 206 222 235 222 208 179 60 104 266 217 217 207 234 239 248 282 259 5 203 186 183 177 168 179 180 178 182 191 195 206 182 185 216 212 215 213 209 202 201
237 239 240 223 220 213 225 201 203 173 170 205 195 257 214 214 221 222 233 229 231 290 256 71 74 66 181 178 171 176 176 184 196 189 192 195 212 219 221 193 201 219 210 205
229 211 228 222 242 220 220 186 197 156 118 117 247 173 270 193 214 220 224 227 192 65 57 73 61 73 46 38 41 33 46 147 183 193 191 194 207 218 197 205 211 227 226 220
254 125 309 321 216 233 249 165 157 116 110 253 181 181 236 197 214 212 213 221 122 94 62 58 65 56 51 40 34 37 37 29 14 22 343 243 207 200 187 200 211 219 223 221
258 212 204 212 276 198 226 171 140 162 189 234 151 178 234 273 307 192 171 176 155 149 121 86 59 54 48 32 22 21 25 27 17 15 354 337 302 265 223 209 209 200 214 219
181 278 167 167 231 210 210 197 173 169 190 151 141 222 237 217 131 71 76 86 85 93 97 86 84 79 63 58 37 39 35 21 15 10 357 3 8 343 338 291 257 226 221 228
294 270 60 191 187 189 189 217 203 108 35 106 193 258 312 124 123 112 103 96 95 98 96 97 94 89 78 85 73 54 48 35 21 10 2 3 6 12 2 339 333 345 339 355
165 290 267 318 195 209 210 203 210 98 142 186 205 199 197 151 139 131 120 112 108 107 102 99 93 83 76 58 63 58 60 59 27 13 9 3 1 360 356 357 357 3 342 350
228 230 268 345 199 191 198 211 234 176 153 167 137 232 151 184 146 128 123 114 121 117 101 99 86 87 89 84 65 63 46 34 37 21 11 10 358 360 1 7 2 360 349 356
228 219 277 259 194 177 261 214 199 205 213 230 129 295 323 138 129 124 119 117 109 93 86 82 79 67 59 60 50 50 45 36 15 8 15 16 11 359 6 5 5 2 356 351
310 124 314 338 144 11 306 206 193 204 107 212 116 225 2 104 107 118 121 113 104 101 85 80 71 62 58 52 42 43 38 31 13 10 11 8 14 9 353 350 352 354 351 351
276 224 183 351 240 286 311 278 169 203 170 193 161 135 138 101 118 122 115 103 98 95 94 89 72 67 55 51 43 42 31 22 10 12 16 14 1 356 344 336 340 343 344 340
314 175 252 3 288 270 268 326 156 205 218 187 160 145 160 143 132 132 113 108 102 101 95 94 87 70 55 53 37 33 25 16 9 18 18 13 354 355 351 344 339 334 334 324
326 50 57 290 314 274 313 351 60 88 99 56 125 115 142 122 100 105 119 118 120 126 119 107 89 65 44 34 35 32 20 10 5 19 18 5 359 354 348 339 341 338 325 315
341 346 6 249 336 7 10 309 14 64 78 134 138 141 134 114 123 135 129 126 132 129 120 102 85 67 43 25 24 13 2 358 13 15 7 4 358 351 344 332 335 332 323 312
314 342 42 290 5 69 240 260 154 115 133 148 112 127 109 120 111 120 123 125 123 120 101 69 48 23 4 11 14 358 1 1 3 7 2 358 351 339 328 318 321 321 311 315
70 13 5 108 186 280 337 25 81 137 150 168 132 127 129 128 95 47 128 129 151 149 144 147 161 168 139 91 26 8 356 351 358 357 339 335 331 328 332 336 332 325 320 316
350 62 125 37 106 203 240 270 323 17 317 149 132 142 146 152 140 223 172 139 139 137 137 138 118 78 67 23 8 355 341 338 341 341 322 316 318 320 320 317 318 312 310 307
4 355 150 154 183 283 251 230 66 89 241 116 127 145 138 127 193 151 160 149 148 147 134 114 93 100 104 331 351 340 341 340 339 323 320 318 316 311 297 299 306 306 310 311
174 131 223 77 61 282 204 25 161 203 36 108 105 119 119 141 133 152 176 171 158 145 133 113 67 35 1 9 10 346 341 326 305 301 303 300 298 299 304 307 306 301 298 302
246 189 185 180 215 236 216 170 233 132 136 167 126 154 143 148 189 191 215 220 212 122 87 76 42 357 345 1 8 335 318 324 314 303 292 287 289 295 296 295 298 303 307 305
258 192 200 75 253 226 230 245 234 171 182 194 176 164 162 187 214 228 234 212 200 227 288 117 1 331 316 336 335 297 310 309 307 304 294 293 282 299 283 289 293 288 293 294
198 130 182 264 271 324 268 218 209 206 182 169 177 182 196 193 206 205 212 206 215 198 213 188 263 278 281 315 306 279 303 292 293 279 280 283 285 287 305 290 288 292 285 287
183 190 189 211 202 173 209 193 187 191 198 195 176 195 211 198 204 190 208 201 194 203 187 204 232 252 269 264 274 265 258 256 272 297 291 298 308 304 295 299 307 294 295 300